Volver al catálogo

SL-16 DEB

ActivoLEO
NORAD 25411·DEBRIS·🇷🇺 Russia

Lanzado Jul 28, 1998 desde Baikonur Cosmodrome

Loading…

Próximos Pases (próximas 24 horas)

TLE

ActualizadoSource: Space-Track

Época: Sep 14, 2026, 09:16 UTC

1 25411U 98045E   26257.38617632  .00000071  00000-0  10864-3 0  9997
2 25411  70.9839 240.0727 0211613 345.1203  14.3728 13.71385635406989

Sigue SL-16 DEB en tiempo real con AllMySat

Download on the App Store